Location: Palomar Mountain Lodge
(33.3110°N, 116.8495°W)
Time: 11:48:36
(UTC-07:00)

ATLAS 2AS CENTAUR R/B - Pass Details

Date: 14 June 2018
Orbit: 914 x 1298 km, 63.7° (Epoch: 10 October)

Event Time Altitude Azimuth Distance (km) Brightness Sun altitude
Exits shadow 22:31:19 46° 151° (SSE) 1,594 3.1 -24.7°
Maximum altitude 22:32:56 54° 113° (ESE) 1,485 3.1 -24.9°
Drops below altitude 10° 22:40:40 10° 39° (NE) 3,295 5.4 -25.8°
Sets 22:43:36 0° 35° (NE) 4,280 6.1 -26.1°
